This is the latest recevied weather packets stored in our database for station/object AA8FM-13. If no packets are shown the sender has not sent any weather packets the latest 10 day(s).
| Time | Temp. | Humidity | Pressure | Rain* | Wind** | Luminosity | Snow |
|---|---|---|---|---|---|---|---|
| 1778064173 | 12.78° C | 99% | 1004.6 hPa | 1.78 mm | - | 4 W/m² | - |
| 1778063870 | 12.78° C | 99% | 1004.5 hPa | 1.78 mm | - | 2 W/m² | - |
| 1778063568 | 12.78° C | 99% | 1004.7 hPa | 3.05 mm | - | 1 W/m² | - |
| 1778063265 | 12.78° C | 99% | 1004.7 hPa | 4.83 mm | - | 1 W/m² | - |
| 1778062963 | 12.78° C | 99% | 1004.7 hPa | 4.83 mm | - | 0 W/m² | - |
| 1778062660 | 12.78° C | 99% | 1004.6 hPa | 4.32 mm | - | 0 W/m² | - |
| 1778062356 | 12.78° C | 99% | 1004.6 hPa | 3.05 mm | - | 0 W/m² | - |
| 1778062054 | 12.78° C | 99% | 1004.5 hPa | 1.78 mm | - | 0 W/m² | - |
| 1778061752 | 12.78° C | 99% | 1004.5 hPa | 3.05 mm | - | 0 W/m² | - |
| 1778061450 | 12.78° C | 99% | 1004.5 hPa | 3.05 mm | - | 0 W/m² | - |
| 1778061147 | 12.78° C | 99% | 1004.6 hPa | 3.05 mm | - | 0 W/m² | - |
| 1778060843 | 13.33° C | 99% | 1004.9 hPa | 4.32 mm | - | 0 W/m² | - |
| 1778060542 | 13.33° C | 99% | 1005.4 hPa | 7.87 mm | - | 0 W/m² | - |
| 1778060241 | 13.33° C | 99% | 1005.4 hPa | 7.87 mm | - | 0 W/m² | - |
| 1778059937 | 13.33° C | 99% | 1005.3 hPa | 6.1 mm | - | 0 W/m² | - |
| 1778059635 | 13.33° C | 99% | 1005.2 hPa | 4.83 mm | - | 0 W/m² | - |
| 1778059332 | 13.33° C | 99% | 1005.5 hPa | 4.32 mm | - | 0 W/m² | - |
| 1778059030 | 13.33° C | 99% | 1005.2 hPa | 6.1 mm | - | 0 W/m² | - |
| 1778058727 | 13.89° C | 99% | 1005.2 hPa | 7.87 mm | - | 0 W/m² | - |
| 1778058425 | 13.33° C | 98% | 1005.5 hPa | 7.87 mm | - | 0 W/m² | - |
| 1778058121 | 13.89° C | 98% | 1005.5 hPa | 4.83 mm | - | 0 W/m² | - |
| 1778057818 | 13.89° C | 98% | 1005.3 hPa | 3.05 mm | - | 0 W/m² | - |
| 1778057514 | 13.89° C | 97% | 1005 hPa | 1.27 mm | - | 0 W/m² | - |
| 1778057211 | 13.89° C | 97% | 1004.7 hPa | 1.78 mm | - | 0 W/m² | - |
| 1778056908 | 13.89° C | 96% | 1004.8 hPa | 1.78 mm | - | 0 W/m² | - |
* Rain latest hour (hover to see other rain measurements)
** Current wind speed in m/s (hover to see current wind gust speed)